KLM274 GVNP-KATL

Flight info

Callsign KLM274
Flight time N/A
Altitude 38000
Route LOTSU1N LOTSU DCT MELUT DCT 18N030W/M085F380 23N040W 27N050W 30N060W 32N070W DCT WILYY/N0488F380 DCT CHS DCT SKWKR JJEDI4
Aircraft A359/H-SDE2E3GHIJ3J4J5LM1ORWXY/LB1D1

Departure

Time 2026-04-16 18:42
Airport Nelson Mandela International Airport (GVNP)

Arrival

Time N/A
Airport Hartsfield Jackson Atlanta International Airport (KATL)
Time Latitude Longitude Altitude Speed Heading
2026-04-16 18:29 14.94562 -23.48516 318 ft 0 kts 290°
2026-04-16 18:29 14.94562 -23.48517 318 ft 0 kts 290°
2026-04-16 18:36 14.94556 -23.48499 317 ft 4 kts 279°
2026-04-16 18:36 14.94557 -23.48473 317 ft 4 kts 243°
2026-04-16 18:36 14.94573 -23.48455 318 ft 3 kts 201°
2026-04-16 18:37 14.94575 -23.48454 318 ft 1 kts 201°
2026-04-16 18:38 14.94546 -23.48466 316 ft 15 kts 201°
2026-04-16 18:38 14.94389 -23.48498 317 ft 25 kts 157°
2026-04-16 18:38 14.94277 -23.48413 315 ft 12 kts 184°
2026-04-16 18:38 14.94184 -23.48442 316 ft 17 kts 198°
2026-04-16 18:39 14.94047 -23.48492 315 ft 28 kts 199°
2026-04-16 18:39 14.93802 -23.48586 315 ft 46 kts 202°
2026-04-16 18:39 14.93660 -23.48647 312 ft 0 kts 202°
2026-04-16 18:39 14.93629 -23.48661 315 ft 23 kts 202°
2026-04-16 18:40 14.93468 -23.48735 311 ft 0 kts 207°
2026-04-16 18:40 14.93465 -23.48736 312 ft 5 kts 205°
2026-04-16 18:40 14.93350 -23.48785 310 ft 21 kts 207°
2026-04-16 18:40 14.93255 -23.48847 309 ft 7 kts 168°
2026-04-16 18:41 14.93251 -23.48827 309 ft 3 kts 76°
2026-04-16 18:41 14.93292 -23.48812 311 ft 16 kts 18°
2026-04-16 18:41 14.93614 -23.48708 312 ft 84 kts 22°
2026-04-16 18:41 14.94387 -23.48362 317 ft 156 kts 21°
2026-04-16 18:42 14.95510 -23.47896 800 ft 185 kts 21°
2026-04-16 18:42 14.96801 -23.47358 1386 ft 217 kts 21°
2026-04-16 18:42 14.98275 -23.46745 2140 ft 234 kts 22°
2026-04-16 18:42 14.99786 -23.46117 2913 ft 241 kts 23°
2026-04-16 18:43 15.01375 -23.45457 3339 ft 251 kts 23°
2026-04-16 18:43 15.03040 -23.44764 3728 ft 258 kts 23°
2026-04-16 18:43 15.04701 -23.44073 4177 ft 263 kts 23°
2026-04-16 18:43 15.06441 -23.43367 4660 ft 267 kts 21°
2026-04-16 18:44 15.08259 -23.43041 5071 ft 275 kts 359°
2026-04-16 18:44 15.10092 -23.43599 5510 ft 279 kts 329°
2026-04-16 18:44 15.11473 -23.45027 6004 ft 282 kts 300°
2026-04-16 18:44 15.12199 -23.46878 6535 ft 281 kts 288°
2026-04-16 18:45 15.12770 -23.48821 7001 ft 284 kts 287°
2026-04-16 18:45 15.13341 -23.50781 7482 ft 285 kts 287°
2026-04-16 18:45 15.13924 -23.52747 7978 ft 287 kts 287°
2026-04-16 18:45 15.14517 -23.54721 8469 ft 288 kts 287°
2026-04-16 18:46 15.15121 -23.56715 8959 ft 290 kts 287°
2026-04-16 18:46 15.15728 -23.58715 9456 ft 293 kts 287°
2026-04-16 18:46 15.16337 -23.60725 9941 ft 294 kts 287°
2026-04-16 18:46 15.16962 -23.62773 10251 ft 304 kts 286°
2026-04-16 18:47 15.17610 -23.64900 10480 ft 315 kts 286°
2026-04-16 18:47 15.18279 -23.67092 10693 ft 325 kts 285°
2026-04-16 18:47 15.18967 -23.69360 10898 ft 335 kts 286°